sat.trackr.live / text

‹ back to catalog

STARLINK-34512

NORAD 64419 · 2025-129H

PAYLOAD ACTIVE UNKNOWN

§ Identity

Operator
Country
US
Launch date
2025-06-17
Launch site
AFWTR
Launch vehicle
Mass (kg)
RCS (m²)

Purposes: comms

External: N2YO · Heavens-Above · Gunter

§ Orbital elements

Epoch: 2026-09-20T12:18:45.150912Z

Period
94.14 min
Inclination
70.0006°
Eccentricity
0.0003724
Mean motion
15.29605519 rev/d
Perigee alt
474.4 km
Apogee alt
479.5 km
Semi-major
6,855.1 km
B*
2.9676e-4
RAAN
300.6940°
Arg perigee
276.7893°
Mean anomaly
83.2858°
Rev number
7,047

§ Raw data

STARLINK-345121 64419U 25129H   26263.51302258  .00008420  00000+0  29676-3 0  99942 64419  70.0006 300.6940 0003724 276.7893  83.2858 15.29605519 70474

JSON: /api/v1/satellites/64419 · /tle

For live sub-satellite position, see the globe view (requires WebGL).

§ Visibility from observer

Set your observer location to see the next 7 days of passes ≥ 10°. The values pass through the URL so the page stays shareable.

No JS? Fill the form by hand. The geolocation button needs JavaScript.